Paducah, KY

11:25 PM CDT on September 19, 2017 (GMT -0500)
Barkley Regional

Weather History for KPAH - June, 2013

Change the Weather History Date:

Saturday, June 15, 2013

  Actual Average Record
Temperature  
Mean Temperature 74 °F 76 °F  
Max Temperature 88 °F 86 °F 99 °F (1952)
Min Temperature 60 °F 65 °F 51 °F (1955)
Degree Days  
Heating Degree Days 0 0  
Month to date heating degree days 0 0  
Since 1 June heating degree days 0 0  
Since 1 July heating degree days 4210 4128  
Cooling Degree Days 9 11  
Month to date cooling degree days 118 133  
Year to date cooling degree days 296 305  
Since 1 June cooling degree days 118 133  
Growing Degree Days 24 (Base 50)    
Moisture  
Dew Point 62 °F    
Average Humidity 69    
Maximum Humidity 97    
Minimum Humidity 40    
Precipitation  
Precipitation 0.00 in 0.13 in 1.95 in (1976)
Month to date precipitation 6.12 2.00  
Year to date precipitation 31.59 23.22  
Snow  
Snow 0.00 in 0.00 in 0.00 in (2002)
Month to date snowfall 0.0 0.0  
Since 1 June snowfall 0.0 0.0  
Since 1 July snowfall 6.8 9.1  
Snow Depth 0.00 in    
Sea Level Pressure  
Sea Level Pressure 30.02 in    
Wind  
Wind Speed 3 mph (South)    
Max Wind Speed 12 mph    
Max Gust Speed 26 mph    
Visibility 10 miles    
Events      
T = Trace of Precipitation, MM = Missing Value Source: NWS Daily Summary

Daily Weather History Graph

Daily Weather History Graph

Search for Another Location

Airport or City:

Trip Planner

Search our weather history database for the weather conditions in past years. The results will help you decide how hot, cold, wet, or windy it might be!

Date:

Astronomy

Jun. 15, 2013 Rise Set
Actual Time 5:34 AM CDT 8:16 PM CDT
Civil Twilight 5:03 AM CDT 8:47 PM CDT
Nautical Twilight 4:25 AM CDT 9:26 PM CDT
Astronomical Twilight 3:42 AM CDT 10:09 PM CDT
Moon 12:01 PM CDT (6/15) No Moon Set
Length of Visible Light 15h 43m
Length of Day
14h 41m
Waxing Crescent, 40% of the Moon is Illuminated
Jun 15
Waxing Crescent
Jun 16
First Quarter
Jun 23
Full
Jun 29
Last Quarter
Jul 8
New

Hourly Weather History & Observations

Time (CDT) Temp. Heat Index Dew Point Humidity Pressure Visibility Wind Dir Wind Speed Gust Speed Precip Events Conditions
12:53 AM 63.0 °F - 60.1 °F 90% 30.04 in 10.0 mi Calm Calm - N/A   Clear
1:53 AM 62.1 °F - 60.1 °F 93% 30.04 in 10.0 mi Calm Calm - N/A   Clear
2:53 AM 64.0 °F - 62.1 °F 93% 30.02 in 10.0 mi Calm Calm - N/A   Clear
3:53 AM 63.0 °F - 61.0 °F 93% 30.01 in 10.0 mi SSE 4.6 mph - N/A   Scattered Clouds
4:53 AM 62.1 °F - 59.0 °F 90% 30.03 in 10.0 mi Calm Calm - N/A   Clear
5:53 AM 61.0 °F - 59.0 °F 93% 30.05 in 10.0 mi Calm Calm - N/A   Clear
6:53 AM 64.0 °F - 62.1 °F 93% 30.06 in 10.0 mi Calm Calm - N/A   Clear
7:53 AM 70.0 °F - 63.0 °F 78% 30.08 in 10.0 mi Calm Calm - N/A   Clear
8:53 AM 75.9 °F - 62.1 °F 62% 30.09 in 10.0 mi Calm Calm - N/A   Clear
9:53 AM 80.1 °F 81.1 °F 61.0 °F 52% 30.06 in 10.0 mi SSE 3.5 mph - N/A   Clear
10:53 AM 82.0 °F 83.0 °F 62.1 °F 51% 30.03 in 10.0 mi SE 9.2 mph - N/A   Clear
11:53 AM 82.9 °F 83.2 °F 60.1 °F 46% 30.03 in 10.0 mi South 5.8 mph - N/A   Clear
12:53 PM 84.9 °F 85.0 °F 61.0 °F 44% 30.03 in 10.0 mi Variable 4.6 mph - N/A   Clear
1:53 PM 84.9 °F 84.8 °F 60.1 °F 43% 30.01 in 10.0 mi Variable 6.9 mph - N/A   Clear
2:53 PM 88.0 °F 87.6 °F 60.1 °F 39% 29.99 in 10.0 mi South 8.1 mph - N/A   Clear
3:53 PM 87.1 °F 87.5 °F 62.1 °F 43% 29.99 in 10.0 mi SSW 6.9 mph - N/A   Clear
4:53 PM 86.0 °F 85.4 °F 59.0 °F 40% 29.97 in 10.0 mi Calm Calm - N/A   Clear
5:53 PM 84.0 °F 83.8 °F 59.0 °F 43% 29.98 in 10.0 mi Calm Calm - N/A   Clear
6:53 PM 82.9 °F 84.0 °F 63.0 °F 51% 29.99 in 10.0 mi Calm Calm - N/A   Clear
7:53 PM 80.1 °F 81.9 °F 64.9 °F 60% 29.96 in 10.0 mi SSE 3.5 mph - N/A   Clear
8:53 PM 78.1 °F - 64.9 °F 64% 29.98 in 10.0 mi South 3.5 mph - N/A   Clear
9:53 PM 75.9 °F - 64.9 °F 69% 29.99 in 10.0 mi South 4.6 mph - N/A   Clear
10:53 PM 75.9 °F - 64.0 °F 67% 29.99 in 10.0 mi South 4.6 mph - N/A   Clear
11:53 PM 75.9 °F - 63.0 °F 64% 29.99 in 10.0 mi Calm Calm - N/A   Clear